| time (UTC) | temp F | wind direction | speed MPH | gust MPH | rain 1hr in | rain 24hr in | rain mn in | humidity % | barometer mb |
| 20260510060024 | 64 | 11 | 0.0 | 2.0 | 0.00 | 0.00 | 0.00 | 19 | 1017.9 |
| 20260510055403 | 64 | 0 | 0.0 | 0.0 | 0.00 | 0.00 | 0.00 | 17 | 1017.9 |
| 20260510054503 | 64 | 0 | 0.0 | 0.0 | 0.00 | 0.00 | 0.00 | 15 | 1017.9 |
| 20260510053624 | 66 | 0 | 0.0 | 0.0 | 0.00 | 0.00 | 0.00 | 13 | 1017.9 |
| 20260510052703 | 67 | 15 | 1.0 | 11.0 | 0.00 | 0.00 | 0.00 | 11 | 1017.9 |
| 20260510051803 | 69 | 303 | 1.0 | 6.0 | 0.00 | 0.00 | 0.00 | 9 | 1017.9 |
| 20260510050903 | 70 | 286 | 2.0 | 12.0 | 0.00 | 0.00 | 0.00 | 8 | 1017.9 |
| 20260510050003 | 70 | 302 | 2.0 | 11.0 | 0.00 | 0.00 | 0.00 | 8 | 1017.9 |
| 20260510045403 | 70 | 305 | 1.0 | 8.0 | 0.00 | 0.00 | 0.00 | 8 | 1017.9 |
| 20260510044503 | 70 | 299 | 0.0 | 7.0 | 0.00 | 0.00 | 0.00 | 8 | 1017.9 |
| 20260510043624 | 70 | 263 | 0.0 | 5.0 | 0.00 | 0.00 | 0.00 | 7 | 1017.9 |
| 20260510042703 | 71 | 291 | 2.0 | 12.0 | 0.00 | 0.00 | 0.00 | 7 | 1017.9 |
| 20260510041824 | 71 | 277 | 2.0 | 12.0 | 0.00 | 0.00 | 0.00 | 6 | 1017.9 |
| 20260510040924 | 72 | 288 | 2.0 | 11.0 | 0.00 | 0.00 | 0.00 | 6 | 1017.9 |
| 20260510040003 | 72 | 296 | 1.0 | 6.0 | 0.00 | 0.00 | 0.00 | 6 | 1017.9 |
| 20260510035403 | 72 | 276 | 1.0 | 13.0 | 0.00 | 0.00 | 0.00 | 6 | 1017.9 |
| 20260510034503 | 72 | 291 | 1.0 | 9.0 | 0.00 | 0.00 | 0.00 | 5 | 1017.9 |
| 20260510033603 | 73 | 298 | 2.0 | 15.0 | 0.00 | 0.00 | 0.00 | 5 | 1017.9 |
| 20260510032724 | 73 | 282 | 3.0 | 14.0 | 0.00 | 0.00 | 0.00 | 5 | 1017.9 |
| 20260510031803 | 72 | 301 | 1.0 | 9.0 | 0.00 | 0.00 | 0.00 | 4 | 1017.9 |
| 20260510030903 | 73 | 298 | 2.0 | 10.0 | 0.00 | 0.00 | 0.00 | 4 | 1017.9 |
| 20260510030003 | 74 | 289 | 2.0 | 14.0 | 0.00 | 0.00 | 0.00 | 5 | 1017.9 |
| 20260510025403 | 74 | 305 | 2.0 | 14.0 | 0.00 | 0.00 | 0.00 | 5 | 1017.9 |
| 20260510024503 | 74 | 300 | 2.0 | 12.0 | 0.00 | 0.00 | 0.00 | 5 | 1017.9 |
| 20260510023603 | 75 | 294 | 1.0 | 9.0 | 0.00 | 0.00 | 0.00 | 6 | 1017.9 |
| 20260510022703 | 75 | 303 | 2.0 | 9.0 | 0.00 | 0.00 | 0.00 | 6 | 1017.9 |
| 20260510021824 | 76 | 301 | 2.0 | 13.0 | 0.00 | 0.00 | 0.00 | 6 | 1017.9 |
| 20260510020903 | 76 | 275 | 1.0 | 13.0 | 0.00 | 0.00 | 0.00 | 5 | 1017.9 |
| 20260510020003 | 76 | 23 | 0.0 | 3.0 | 0.00 | 0.00 | 0.00 | 5 | 1017.9 |
| 20260510015403 | 76 | 23 | 0.0 | 3.0 | 0.00 | 0.00 | 0.00 | 4 | 1017.9 |
| 20260510014503 | 76 | 23 | 0.0 | 3.0 | 0.00 | 0.00 | 0.00 | 4 | 1017.9 |
| 20260510013624 | 76 | 0 | 0.0 | 2.0 | 0.00 | 0.00 | 0.00 | 5 | 1017.9 |
| 20260510012703 | 77 | 24 | 1.0 | 6.0 | 0.00 | 0.00 | 0.00 | 5 | 1017.9 |
| 20260510011803 | 78 | 26 | 0.0 | 4.0 | 0.00 | 0.00 | 0.00 | 6 | 1017.9 |
| 20260510010924 | 78 | 26 | 0.0 | 3.0 | 0.00 | 0.00 | 0.00 | 7 | 1017.9 |
| 20260510010003 | 78 | 0 | 0.0 | 0.0 | 0.00 | 0.00 | 0.00 | 8 | 1017.9 |
| 20260510005403 | 78 | 0 | 0.0 | 0.0 | 0.00 | 0.00 | 0.00 | 7 | 1017.9 |
| 20260510004503 | 78 | 21 | 0.0 | 3.0 | 0.00 | 0.00 | 0.00 | 7 | 1017.9 |
| 20260510003603 | 79 | 13 | 1.0 | 8.0 | 0.00 | 0.00 | 0.00 | 7 | 1017.9 |
| 20260510002703 | 80 | 22 | 2.0 | 8.0 | 0.00 | 0.00 | 0.00 | 6 | 1017.9 |
| 20260510001803 | 81 | 10 | 2.0 | 9.0 | 0.00 | 0.00 | 0.00 | 7 | 1017.9 |
| 20260510000924 | 82 | 19 | 4.0 | 12.0 | 0.00 | 0.00 | 0.00 | 5 | 1017.9 |
| 20260510000003 | 82 | 11 | 4.0 | 14.0 | 0.00 | 0.00 | 0.00 | 6 | 1017.9 |
| 20260509235403 | 82 | 18 | 3.0 | 9.0 | 0.00 | 0.00 | 0.00 | 6 | 1017.9 |
| 20260509234503 | 82 | 19 | 1.0 | 10.0 | 0.00 | 0.00 | 0.00 | 6 | 1017.9 |
| 20260509233603 | 82 | 9 | 2.0 | 10.0 | 0.00 | 0.00 | 0.00 | 5 | 1017.9 |
| 20260509232703 | 83 | 343 | 2.0 | 9.0 | 0.00 | 0.00 | 0.00 | 4 | 1017.9 |
| 20260509231803 | 83 | 355 | 1.0 | 11.0 | 0.00 | 0.00 | 0.00 | 5 | 1017.9 |
| 20260509230903 | 83 | 360 | 3.0 | 11.0 | 0.00 | 0.00 | 0.00 | 5 | 1017.9 |
| 20260509230003 | 83 | 345 | 2.0 | 11.0 | 0.00 | 0.00 | 0.00 | 4 | 1017.9 |
| 20260509225403 | 83 | 304 | 2.0 | 11.0 | 0.00 | 0.00 | 0.00 | 5 | 1017.9 |
| 20260509224503 | 84 | 221 | 3.0 | 13.0 | 0.00 | 0.00 | 0.00 | 4 | 1017.9 |
| 20260509223603 | 84 | 262 | 2.0 | 10.0 | 0.00 | 0.00 | 0.00 | 4 | 1017.9 |
| 20260509222703 | 83 | 210 | 2.0 | 13.0 | 0.00 | 0.00 | 0.00 | 6 | 1017.9 |
| 20260509221803 | 84 | 266 | 1.0 | 9.0 | 0.00 | 0.00 | 0.00 | 6 | 1017.9 |
| 20260509220903 | 84 | 206 | 3.0 | 19.0 | 0.00 | 0.00 | 0.00 | 6 | 1017.9 |
| 20260509220003 | 85 | 308 | 1.0 | 10.0 | 0.00 | 0.00 | 0.00 | 6 | 1017.9 |
| 20260509215403 | 84 | 338 | 3.0 | 15.0 | 0.00 | 0.00 | 0.00 | 7 | 1017.9 |
| 20260509214503 | 84 | 337 | 3.0 | 12.0 | 0.00 | 0.00 | 0.00 | 6 | 1017.9 |
| 20260509213603 | 83 | 323 | 3.0 | 15.0 | 0.00 | 0.00 | 0.00 | 7 | 1017.9 |
| 20260509212703 | 82 | 293 | 3.0 | 11.0 | 0.00 | 0.00 | 0.00 | 7 | 1017.9 |
| 20260509211824 | 83 | 317 | 3.0 | 13.0 | 0.00 | 0.00 | 0.00 | 8 | 1017.9 |
| 20260509210903 | 83 | 2 | 6.0 | 18.0 | 0.00 | 0.00 | 0.00 | 8 | 1017.9 |
| 20260509210024 | 83 | 354 | 3.0 | 9.0 | 0.00 | 0.00 | 0.00 | 8 | 1017.9 |
| 20260509205403 | 83 | 332 | 2.0 | 10.0 | 0.00 | 0.00 | 0.00 | 8 | 1017.9 |
| 20260509204503 | 83 | 307 | 3.0 | 11.0 | 0.00 | 0.00 | 0.00 | 9 | 1017.9 |
| 20260509202703 | 82 | 333 | 4.0 | 14.0 | 0.00 | 0.00 | 0.00 | 9 | 1017.9 |
| 20260509201803 | 83 | 324 | 5.0 | 18.0 | 0.00 | 0.00 | 0.00 | 8 | 1017.9 |
| 20260509200903 | 84 | 2 | 3.0 | 11.0 | 0.00 | 0.00 | 0.00 | 10 | 1017.9 |
| 20260509200024 | 83 | 308 | 2.0 | 10.0 | 0.00 | 0.00 | 0.00 | 10 | 1017.9 |
| 20260509195403 | 82 | 298 | 4.0 | 11.0 | 0.00 | 0.00 | 0.00 | 10 | 1017.9 |
| 20260509194503 | 83 | 356 | 3.0 | 14.0 | 0.00 | 0.00 | 0.00 | 10 | 1017.9 |
| 20260509193603 | 83 | 356 | 3.0 | 12.0 | 0.00 | 0.00 | 0.00 | 9 | 1017.9 |
| 20260509192703 | 83 | 333 | 5.0 | 14.0 | 0.00 | 0.00 | 0.00 | 9 | 1017.9 |
| 20260509191803 | 83 | 346 | 4.0 | 14.0 | 0.00 | 0.00 | 0.00 | 10 | 1017.9 |
| 20260509190903 | 82 | 304 | 2.0 | 9.0 | 0.00 | 0.00 | 0.00 | 10 | 1017.9 |
| 20260509190003 | 83 | 12 | 4.0 | 11.0 | 0.00 | 0.00 | 0.00 | 10 | 1017.9 |
| 20260509185403 | 83 | 26 | 4.0 | 11.0 | 0.00 | 0.00 | 0.00 | 12 | 1017.9 |
| 20260509184503 | 82 | 25 | 3.0 | 12.0 | 0.00 | 0.00 | 0.00 | 13 | 1017.9 |
| 20260509183603 | 81 | 20 | 5.0 | 12.0 | 0.00 | 0.00 | 0.00 | 13 | 1017.9 |
| 20260509182703 | 81 | 13 | 5.0 | 11.0 | 0.00 | 0.00 | 0.00 | 15 | 1017.9 |
| 20260509181803 | 81 | 12 | 7.0 | 14.0 | 0.00 | 0.00 | 0.00 | 14 | 1017.9 |
| 20260509180903 | 80 | 9 | 7.0 | 13.0 | 0.00 | 0.00 | 0.00 | 15 | 1017.9 |
| 20260509180003 | 80 | 9 | 5.0 | 12.0 | 0.00 | 0.00 | 0.00 | 15 | 1017.9 |
| 20260509175403 | 79 | 8 | 5.0 | 13.0 | 0.00 | 0.00 | 0.00 | 15 | 1017.9 |
| 20260509174503 | 79 | 15 | 6.0 | 12.0 | 0.00 | 0.00 | 0.00 | 15 | 1017.9 |
| 20260509173603 | 78 | 28 | 6.0 | 13.0 | 0.00 | 0.00 | 0.00 | 15 | 1017.9 |
| 20260509172703 | 78 | 41 | 5.0 | 11.0 | 0.00 | 0.00 | 0.00 | 15 | 1017.9 |
| 20260509171803 | 77 | 18 | 2.0 | 9.0 | 0.00 | 0.00 | 0.00 | 15 | 1017.9 |
| 20260509170903 | 76 | 61 | 1.0 | 4.0 | 0.00 | 0.00 | 0.00 | 17 | 1017.9 |
| 20260509170003 | 75 | 67 | 3.0 | 8.0 | 0.00 | 0.00 | 0.00 | 18 | 1017.9 |
| 20260509165403 | 75 | 71 | 2.0 | 9.0 | 0.00 | 0.00 | 0.00 | 19 | 1017.9 |
| 20260509164503 | 73 | 73 | 1.0 | 5.0 | 0.00 | 0.00 | 0.00 | 20 | 1017.9 |
| 20260509163603 | 73 | 65 | 1.0 | 4.0 | 0.00 | 0.00 | 0.00 | 20 | 1017.9 |
| 20260509162703 | 72 | 61 | 1.0 | 5.0 | 0.00 | 0.00 | 0.00 | 21 | 1017.9 |
| 20260509161803 | 72 | 59 | 3.0 | 9.0 | 0.00 | 0.00 | 0.00 | 23 | 1017.9 |
| 20260509160903 | 72 | 64 | 2.0 | 9.0 | 0.00 | 0.00 | 0.00 | 23 | 1017.9 |
| 20260509160003 | 70 | 65 | 1.0 | 5.0 | 0.00 | 0.00 | 0.00 | 23 | 1017.9 |
| 20260509155403 | 69 | 65 | 0.0 | 1.0 | 0.00 | 0.00 | 0.00 | 25 | 1017.9 |
| 20260509154503 | 69 | 65 | 1.0 | 4.0 | 0.00 | 0.00 | 0.00 | 24 | 1017.9 |
| 20260509153603 | 69 | 65 | 1.0 | 5.0 | 0.00 | 0.00 | 0.00 | 26 | 1017.9 |
| 20260509152724 | 69 | 65 | 1.0 | 5.0 | 0.00 | 0.00 | 0.00 | 25 | 1017.9 |
| 20260509151803 | 68 | 65 | 1.0 | 5.0 | 0.00 | 0.00 | 0.00 | 26 | 1017.9 |
| 20260509150903 | 67 | 65 | 1.0 | 5.0 | 0.00 | 0.00 | 0.00 | 27 | 1017.9 |
| 20260509150003 | 66 | 53 | 2.0 | 6.0 | 0.00 | 0.00 | 0.00 | 28 | 1017.9 |
| 20260509145424 | 66 | 43 | 2.0 | 6.0 | 0.00 | 0.00 | 0.00 | 29 | 1017.9 |
| 20260509144503 | 64 | 27 | 0.0 | 3.0 | 0.00 | 0.00 | 0.00 | 31 | 1017.9 |
| 20260509143603 | 62 | 27 | 0.0 | 3.0 | 0.00 | 0.00 | 0.00 | 31 | 1017.9 |
| 20260509142703 | 60 | 0 | 0.0 | 0.0 | 0.00 | 0.00 | 0.00 | 35 | 1017.9 |
| 20260509141803 | 59 | 0 | 0.0 | 0.0 | 0.00 | 0.00 | 0.00 | 36 | 1017.9 |
| 20260509140903 | 59 | 0 | 0.0 | 0.0 | 0.00 | 0.00 | 0.00 | 35 | 1017.9 |
| 20260509140015 | 58 | 0 | 0.0 | 0.0 | 0.00 | 0.00 | 0.00 | 37 | 1017.9 |
| 20260509135436 | 58 | 0 | 0.0 | 0.0 | 0.00 | 0.00 | 0.00 | 36 | 1017.9 |
| 20260509134515 | 58 | 0 | 0.0 | 0.0 | 0.00 | 0.00 | 0.00 | 39 | 1017.9 |
| 20260509133615 | 59 | 0 | 0.0 | 0.0 | 0.00 | 0.00 | 0.00 | 39 | 1017.9 |
| 20260509132715 | 59 | 0 | 0.0 | 0.0 | 0.00 | 0.00 | 0.00 | 38 | 1017.9 |
| 20260509131815 | 59 | 27 | 0.0 | 3.0 | 0.00 | 0.00 | 0.00 | 39 | 1017.9 |
| 20260509130915 | 59 | 27 | 1.0 | 3.0 | 0.00 | 0.00 | 0.00 | 35 | 1017.9 |
| 20260509130003 | 57 | 0 | 0.0 | 0.0 | 0.00 | 0.00 | 0.00 | 34 | 1017.9 |
| 20260509125415 | 57 | 0 | 0.0 | 1.0 | 0.00 | 0.00 | 0.00 | 35 | 1017.9 |
| 20260509124536 | 56 | 0 | 0.0 | 1.0 | 0.00 | 0.00 | 0.00 | 36 | 1017.9 |
| 20260509123615 | 55 | 0 | 0.0 | 0.0 | 0.00 | 0.00 | 0.00 | 37 | 1017.9 |
| 20260509122703 | 55 | 0 | 0.0 | 0.0 | 0.00 | 0.00 | 0.00 | 37 | 1017.9 |
| 20260509121836 | 55 | 27 | 0.0 | 4.0 | 0.00 | 0.00 | 0.00 | 36 | 1017.9 |
| 20260509120915 | 54 | 27 | 0.0 | 4.0 | 0.00 | 0.00 | 0.00 | 37 | 1017.9 |
| 20260509120003 | 54 | 27 | 0.0 | 3.0 | 0.00 | 0.00 | 0.00 | 38 | 1017.9 |
| 20260509115415 | 54 | 21 | 0.0 | 6.0 | 0.00 | 0.00 | 0.00 | 38 | 1017.9 |
| 20260509114515 | 55 | 21 | 2.0 | 8.0 | 0.00 | 0.00 | 0.00 | 38 | 1017.9 |
| 20260509113615 | 57 | 25 | 0.0 | 5.0 | 0.00 | 0.00 | 0.00 | 32 | 1017.9 |
| 20260509112715 | 58 | 0 | 0.0 | 0.0 | 0.00 | 0.00 | 0.00 | 30 | 1017.9 |
| 20260509111815 | 59 | 244 | 0.0 | 2.0 | 0.00 | 0.00 | 0.00 | 29 | 1017.9 |
| 20260509110903 | 59 | 244 | 1.0 | 7.0 | 0.00 | 0.00 | 0.00 | 29 | 1017.9 |
| 20260509110015 | 58 | 245 | 2.0 | 5.0 | 0.00 | 0.00 | 0.00 | 30 | 1017.9 |
| 20260509105436 | 57 | 246 | 2.0 | 5.0 | 0.00 | 0.00 | 0.00 | 31 | 1017.9 |
| 20260509104515 | 56 | 0 | 0.0 | 0.0 | 0.00 | 0.00 | 0.00 | 34 | 1017.9 |
| 20260509103615 | 56 | 0 | 0.0 | 0.0 | 0.00 | 0.00 | 0.00 | 33 | 1017.9 |
| 20260509102736 | 58 | 0 | 0.0 | 0.0 | 0.00 | 0.00 | 0.00 | 31 | 1017.9 |
| 20260509101815 | 59 | 0 | 0.0 | 0.0 | 0.00 | 0.00 | 0.00 | 29 | 1017.9 |
| 20260509100915 | 61 | 0 | 0.0 | 0.0 | 0.00 | 0.00 | 0.00 | 28 | 1017.9 |
| 20260509100015 | 63 | 0 | 0.0 | 0.0 | 0.00 | 0.00 | 0.00 | 26 | 1017.9 |
| 20260509095436 | 64 | 246 | 0.0 | 4.0 | 0.00 | 0.00 | 0.00 | 25 | 1017.9 |
| 20260509094515 | 65 | 246 | 1.0 | 5.0 | 0.00 | 0.00 | 0.00 | 21 | 1017.9 |
| 20260509093603 | 65 | 246 | 1.0 | 5.0 | 0.00 | 0.00 | 0.00 | 21 | 1017.9 |
| 20260509092715 | 65 | 246 | 3.0 | 7.0 | 0.00 | 0.00 | 0.00 | 21 | 1017.9 |
| 20260509091815 | 64 | 247 | 2.0 | 7.0 | 0.00 | 0.00 | 0.00 | 22 | 1017.9 |
| 20260509090915 | 62 | 250 | 0.0 | 4.0 | 0.00 | 0.00 | 0.00 | 24 | 1017.9 |
| 20260509090015 | 63 | 0 | 0.0 | 0.0 | 0.00 | 0.00 | 0.00 | 26 | 1017.9 |
| 20260509085403 | 64 | 250 | 0.0 | 1.0 | 0.00 | 0.00 | 0.00 | 25 | 1017.9 |
| 20260509084515 | 66 | 250 | 0.0 | 4.0 | 0.00 | 0.00 | 0.00 | 22 | 1017.9 |
| 20260509083615 | 67 | 250 | 2.0 | 5.0 | 0.00 | 0.00 | 0.00 | 20 | 1017.9 |
| 20260509082715 | 67 | 250 | 1.0 | 5.0 | 0.00 | 0.00 | 0.00 | 20 | 1017.9 |
| 20260509081815 | 68 | 250 | 1.0 | 4.0 | 0.00 | 0.00 | 0.00 | 19 | 1017.9 |
| 20260509080915 | 68 | 250 | 1.0 | 7.0 | 0.00 | 0.00 | 0.00 | 19 | 1017.9 |
| 20260509080004 | 68 | 251 | 1.0 | 8.0 | 0.00 | 0.00 | 0.00 | 19 | 1017.9 |
| 20260509075415 | 68 | 252 | 1.0 | 8.0 | 0.00 | 0.00 | 0.00 | 19 | 1017.9 |
| 20260509074515 | 69 | 256 | 1.0 | 4.0 | 0.00 | 0.00 | 0.00 | 19 | 1017.9 |
| 20260509073603 | 69 | 257 | 1.0 | 8.0 | 0.00 | 0.00 | 0.00 | 19 | 1017.9 |
| 20260509072715 | 69 | 245 | 1.0 | 8.0 | 0.00 | 0.00 | 0.00 | 19 | 1017.9 |
| 20260509071803 | 69 | 253 | 1.0 | 8.0 | 0.00 | 0.00 | 0.00 | 19 | 1017.9 |
| 20260509070903 | 69 | 248 | 1.0 | 7.0 | 0.00 | 0.00 | 0.00 | 19 | 1017.9 |
| 20260509070015 | 69 | 239 | 2.0 | 7.0 | 0.00 | 0.00 | 0.00 | 20 | 1017.9 |
| 20260509065403 | 69 | 237 | 1.0 | 4.0 | 0.00 | 0.00 | 0.00 | 20 | 1017.9 |
| 20260509064536 | 69 | 231 | 1.0 | 6.0 | 0.00 | 0.00 | 0.00 | 20 | 1017.9 |
| 20260509063603 | 70 | 288 | 1.0 | 4.0 | 0.00 | 0.00 | 0.00 | 19 | 1017.9 |
| 20260509062703 | 70 | 281 | 1.0 | 8.0 | 0.00 | 0.00 | 0.00 | 18 | 1017.9 |
| 20260509061815 | 70 | 300 | 1.0 | 6.0 | 0.00 | 0.00 | 0.00 | 18 | 1017.9 |
| 20260509060903 | 70 | 303 | 2.0 | 8.0 | 0.00 | 0.00 | 0.00 | 18 | 1017.9 |